User: anonymous   Login
Location: Newark
(44.2886°N, 4.8431°E)
Time: 03:14:20
(UTC+00:00)
Language:

ZACube-1 - Orbit

View from above orbital plane
View from above orbital plane
View from above satellite
View from above satellite

Ground track
Ground track

The orbit data is extracted from the following two-line orbital elements,

1 39417U 13066B   21138.86737873  .00000304  00000-0  44316-4 0  9993
2 39417  97.5915 124.7297 0057033 257.9066 101.5754 14.81503818404692
Epoch (UTC): 18 May 2021 20:49:01
Eccentricity: 0.0057033
inclination: 97.5915°
perigee height: 584 km
apogee height: 664 km
right ascension of ascending node: 124.7297°
argument of perigee: 257.9066°
revolutions per day: 14.81503818
mean anomaly at epoch: 101.5754°
orbit number at epoch: 40469

The dashed part of the orbit path shows where the satellite is in the earth's shadow,  

DLR